Regional Weather Roundup
Issued by NWS

Home | Current Version | Previous Version | Text Only | Print | Product List | Glossary Off
Versions: 1 2 3 4 5 6 7 8 9 10 11 12 13 14 15 16 17 18 19 20 21 22 23 24 25 26 27 28 29 30 31 32 33 34 35 36 37 38 39 40 41 42 43 44 45 46 47 48 49 50

623
ASUS43 KMPX 242010
RWRMN
WEATHER ROUNDUP FOR MINNESOTA
NATIONAL WEATHER SERVICE TWIN CITIES/CHANHASSEN MN
200 PM CST FRI FEB 24 2017


NOTE: "FAIR" INDICATES FEW OR NO CLOUDS BELOW 12,000 FEET WITH NO
SIGNIFICANT WEATHER AND/OR OBSTRUCTIONS TO VISIBILITY. N/A MEANS
CURRENT SKY AND/OR WEATHER CONDITIONS ARE NOT AVAILABLE.

MNZ060>063-068>070-242100-
   Twin Cities Metro

CITY           SKY/WX    TMP DP  RH WIND       PRES   REMARKS
TWIN CITIES    CLOUDY    26  14  60 N22G29    29.82R WCI  12
ST PAUL        CLOUDY    26  16  65 N23G29    29.83R WCI  11
CRYSTAL        CLOUDY    26  12  55 N20G28    29.82F WCI  12
BLAINE         CLOUDY    27  16  63 N20G28    29.82F WCI  13
LAKEVILLE      CLOUDY    25  18  74 N15G22    29.79S WCI  12
EDEN PRAIRIE   CLOUDY    27  14  58 N17G28    29.80S WCI  14
SOUTH ST PAUL  CLOUDY    27  17  66 N17G23    29.80S WCI  14
LAKE ELMO      CLOUDY    27  19  74 N13G22    29.81R WCI  16
$$
MNZ001>005-007-008-013>017-022>024-027-028-242100-
   Northwest Minnesota

CITY           SKY/WX    TMP DP  RH WIND       PRES   REMARKS
BEMIDJI        SUNNY     19   7  58 NW12      29.97F WCI   7
HALLOCK        SUNNY     18  10  73 N13G21    30.12F WCI   4
ROSEAU         SUNNY     19   9  63 W10       30.06F WCI   8
WARROAD        SUNNY     19   7  58 NW9       30.05F WCI   9
THIEF RVR FALL SUNNY     21  10  62 NW17      30.07F WCI   7
CROOKSTON      PTSUNNY   19  14  79 N18       30.11S WCI   4
FOSSTON        SUNNY     21  10  63 N18       30.03F WCI   6
DETROIT LAKES  PTSUNNY   25  18  74 N13G29    29.99F WCI  13
MOORHEAD       PTSUNNY   23  16  74 N23G29    30.07S WCI   7
PARK RAPIDS    SUNNY     23   6  48 N16G24    29.94F WCI  10
MAHNOMEN       MOCLDY    22  13  68 N17G25    30.01F WCI   8
$$
MNZ006-009>011-018-025>026-242100-
   North Central Minnesota

CITY           SKY/WX    TMP DP  RH WIND       PRES   REMARKS
BAUDETTE       SUNNY     16   3  56 NW14      30.02F WCI   2
FLAG ISLAND    SUNNY     16   1  53 NW14      30.04F WCI   1
INTL FALLS     MOSUNNY   18   4  54 VRB7      29.98F WCI   9
WASKISH        MOSUNNY   19   7  58 NW10      30.00F WCI   8
BIG FORK       MOSUNNY   21   5  49 N8G16     29.94F WCI  12
LONGVILLE      SUNNY     21   7  53 NW10G18   29.94F WCI  10
GRAND RAPIDS   MOSUNNY   20   7  57 N15       29.93F WCI   6
CRANE LAKE     PTSUNNY   18   3  53 N6        29.98F WCI   9
ORR            CLOUDY    19   1  45 NW6       29.91F WCI  11
COOK           MOSUNNY   19   3  49 N6        29.92F WCI  11
WALKER         FAIR      19   5  54 N14       29.95F WCI   6
$$
MNZ012-019>021-037-242100-
   Northeast Minnesota

CITY           SKY/WX    TMP DP  RH WIND       PRES   REMARKS
DULUTH         MOSUNNY   21  11  65 N13       29.85F WCI   9
ELY            CLOUDY    16   1  53 N9        29.90F WCI   4
HIBBING        MOSUNNY   18   6  59 NW16      29.90F WCI   3
EVELETH        MOSUNNY   20   0  41 NE12      29.90F WCI   8
DULUTH HARBOR  CLOUDY    25  14  63 N13G18    29.91F WCI  13
TWO HARBORS    MOSUNNY   25  10  54 N8G16     29.85F WCI  16
SILVER BAY     CLOUDY    21   7  53 N9        29.86F WCI  11
GRAND MARAIS     N/A     20   2  45 N12G17    29.92F WCI   8
G MARAIS ARPRT CLOUDY    10  -2  56 N14       29.82F WCI  -5
$$
MNZ029>031-032-039>041-046>048-054>057-064-242100-
   West Central Minnesota

CITY           SKY/WX    TMP DP  RH WIND       PRES   REMARKS
FERGUS FALLS   MOSUNNY   27  14  59 N23G35    30.02F WCI  12
WHEATON        CLOUDY    25  16  68 N22G31    30.03S WCI  10
MORRIS         MOSUNNY   27  16  63 N24G32    29.95F WCI  12
ALEXANDRIA     MOSUNNY   26  11  52 N24G30    29.92F WCI  11
ELBOW LAKE     FAIR      25  14  62 N22       29.97F WCI  11
WADENA         SUNNY     21  10  63 N18G26    29.94S WCI   6
GLENWOOD       SUNNY     27  10  50 N17G29    29.91F WCI  14
APPLETON       MOSUNNY   28  14  54 N24       29.96S WCI  14
BENSON         MOSUNNY   30   7  37 NE26G32   29.95F WCI  16
ORTONVILLE     MOSUNNY   27  14  59 N29G36    29.98F WCI  11
MADISON        PTSUNNY   30  16  55 N24G33    29.96F WCI  16
WILLMAR        FAIR      27  14  59 N22G30    29.90F WCI  12
$$
MNZ033>034-036-042>043-049>051-058-059-242100-
   Central Minnesota

CITY           SKY/WX    TMP DP  RH WIND       PRES   REMARKS
ST CLOUD       MOSUNNY   26  13  57 N18G28    29.86F WCI  13
SAUK CENTRE    FAIR      25  10  53 N24       29.90F WCI   9
PAYNESVILLE    MOSUNNY   25  12  56 N14G21    29.88F WCI  13
AITKIN         CLOUDY    23  10  58 N14G21    29.90S WCI  11
PINE RIVER     SUNNY     19   9  63 N13G21    29.96F WCI   7
BRAINERD       SUNNY     21  10  62 N21       29.92S WCI   5
STAPLES        SUNNY     21   9  58 N15G22    29.93S WCI   8
LONG PRAIRIE   FAIR      23  10  58 NW18G25   29.91F WCI   9
LITTLE FALLS   SUNNY     27   9  46 N12G21    29.90F WCI  16
LITCHFIELD     CLOUDY    28  12  50 N17G24    29.86S WCI  16
BUFFALO        CLOUDY    25  12  58 N13G23    29.86S WCI  14
MAPLE LAKE     MOSUNNY   26  14  60 N17G23    29.87R WCI  14
HUTCHINSON     SUNNY     27  13  56 N16G28    29.86S WCI  14
$$
MNZ037-044-045-052-053-242100-
   East Central Minnesota

CITY           SKY/WX    TMP DP  RH WIND       PRES   REMARKS
PRINCETON      MOSUNNY   27  12  54 NW15      29.86S WCI  15
MORA           PTSUNNY   27  16  63 N12G23    29.87F WCI  16
CAMBRIDGE      CLOUDY    27  14  59 NW10G18   29.84R WCI  17
RUSH CITY      CLOUDY    25  14  63 N14G21    29.85F WCI  13
MOOSE LAKE     MOSUNNY   25  12  58 N10G21    29.86F WCI  15
HINCKLEY       CLOUDY    25  16  68 N18       29.85F WCI  11
CLOQUET        PTSUNNY   19  10  68 N12G20    29.87S WCI   7
MCGREGOR       MOSUNNY   23  12  63 N12       29.90S WCI  12
$$
MNZ071>073-080-081-089-090-097-098-242100-
   Southwest Minnesota

CITY           SKY/WX    TMP DP  RH WIND       PRES   REMARKS
MONTEVIDEO     MOSUNNY   27  14  59 N24G30    29.95S WCI  12
GRANITE FALLS  CLOUDY    30  15  55 NW24G32   29.92F WCI  16
CANBY          PTSUNNY   29  15  58 N23G31    29.96F WCI  15
REDWOOD FALLS  PTSUNNY   28  11  48 N17G29    29.88S WCI  16
OLIVIA         PTSUNNY   30  16  55 N23G29    29.87S WCI  17
PIPESTONE      CLOUDY    27  10  50 N22G30    29.88S WCI  12
WINDOM         CLOUDY    25  16  68 N31G37    29.82F HAZE    WCI   8
WORTHINGTON    CLOUDY    23  16  74 N31       29.82F HAZE    WCI   5
JACKSON        CLOUDY    23  18  80 N16G31    29.80F HAZE    WCI  10
TRACY          PTSUNNY   28  15  60 N25G35    29.88F WCI  13
SLAYTON        CLOUDY    24  13  64 N30       29.85F WCI   7
$$
MNZ065>067-074>077-082>085-091>093-242100-
   South Central Minnesota

CITY           SKY/WX    TMP DP  RH WIND       PRES   REMARKS
MANKATO          N/A     26  17  68 N20       29.80S WCI  12
NEW ULM        CLOUDY    27  12  54 N17G29    29.82S WCI  14
ST JAMES       CLOUDY    25  18  74 NW24      29.83F WCI   9
FAIRMONT       CLOUDY    24  18  77 N23G32    29.79S HAZE    WCI   9
GLENCOE        CLOUDY    27  17  66 NW20G26   29.83S WCI  14
FARIBAULT      LGT SNOW  27  19  74 N14G21    29.78S WCI  15
OWATONNA       CLOUDY    25  19  80 N22       29.75S WCI  10
WASECA         CLOUDY    23  19  86 N21G26    29.78S WCI   8
ALBERT LEA     LGT SNOW  25  21  86 N14G23    29.72S VSB 3/4 WCI  13
$$
MNZ078>079-086>088-094>096-242100-
   Southeast Minnesota

CITY           SKY/WX    TMP DP  RH WIND       PRES   REMARKS
ROCHESTER      CLOUDY    25  21  85 N29G38    29.68S FOG     WCI   8
RED WING       LGT SNOW  27  19  74 N6        29.76S WCI  20
STANTON        LGT SNOW  26  22  83 N20       29.76S VSB 1   WCI  12
DODGE CENTER   CLOUDY    25  21  86 N21       29.70S WCI  10
WINONA         CLOUDY    30  25  80 N6        29.71R WCI  24
AUSTIN           N/A     25  21  86 N15G21    29.70R WCI  12
PRESTON        CLOUDY    26  22  84 N16G23    29.65S WCI  13
$$
ABBREVIATIONS USED IN REMARKS
   TC - TEMPERATURES IN CELSIUS
  WCI - WIND CHILL INDEX
   HX - HEAT INDEX
  VSB - VISIBILITY
$$




USA.gov is the U.S. government's official web portal to all federal, state and local government web resources and services.